Location: Lugrin
(46.4033°N, 6.6674°E)
Time: 17:00:27
(UTC+00:00)

KORONAS-FOTON - Pass Details

Date: 18 September 2020
Orbit: 505 x 532 km, 82.4° (Epoch: 30 October)

Event Time Altitude Azimuth Distance (km) Brightness Sun altitude
Rises 19:21:13 0° 355° (N) 2,688 7.8 -18.1°
Reaches altitude 10° 19:23:25 10° 1° (N) 1,794 6.8 -18.4°
Maximum altitude 19:27:16 51° 78° (ENE) 680 4.0 -19.1°
Enters shadow 19:27:30 50° 91° (E) 687 4.0 -19.1°
